Vorticity
nan nan nan nan nan nan nan nan nan nan nan nan nan nan nan nan nan nan nan nan nan nan nan nan nan nan nan nan nan nan nan nan nan nan nan nan nan nan nan nan nan nan nan nan nan nan nan nan nan
nan 9 10 10 7 2 6 9 5 2 6 6 5 7 8 6 8 10 11 13 8 5 4 7 8 6 5 5 5 5 5 5 5 5 5 5 5 6 5 5 6 5 5 5 4 4 4 4 nan
nan 9 9 8 4 3 7 6 5 7 7 8 5 5 5 8 10 7 12 11 8 4 5 9 8 5 5 5 5 5 5 5 5 6 5 5 5 5 5 6 6 5 4 4 4 4 4 3 nan
nan 5 9 10 4 6 7 7 10 7 5 6 7 5 4 9 14 17 13 5 6 4 7 9 6 6 6 5 4 4 5 5 5 5 5 6 5 5 5 5 6 5 4 4 4 3 3 3 nan
nan 10 9 5 8 9 7 5 7 7 6 6 6 6 4 8 17 15 7 7 3 6 6 8 8 6 6 5 4 4 4 4 5 5 5 5 5 5 6 6 6 5 4 3 3 3 3 3 nan
nan 9 8 8 7 7 6 6 4 5 4 4 7 9 8 6 8 9 6 7 7 8 5 7 7 5 6 6 5 4 4 4 5 5 5 5 6 6 5 5 5 5 5 4 4 4 3 4 nan
nan 8 7 8 7 7 10 10 3 4 3 7 9 3 9 10 9 8 6 7 9 7 6 5 7 9 7 5 5 5 4 5 5 6 6 6 6 6 6 5 5 4 4 4 4 4 5 4 nan
nan 7 8 8 10 7 8 8 12 6 0 10 9 7 11 16 9 6 8 6 7 7 7 5 6 7 7 9 8 6 5 5 5 5 6 6 5 5 5 5 5 5 5 5 5 5 5 5 nan
nan 6 8 7 7 5 8 9 6 9 11 7 4 12 21 16 4 5 4 4 6 6 7 7 5 6 6 9 9 8 6 4 4 4 4 3 4 6 6 6 5 5 5 5 5 5 5 6 nan
nan 9 10 5 4 7 6 4 6 9 9 8 4 13 17 7 6 3 4 4 4 7 4 6 6 6 6 6 7 7 5 4 6 7 5 5 7 6 6 7 7 7 6 8 8 8 9 9 nan
nan 8 7 5 7 8 5 5 7 7 9 10 6 9 8 4 4 4 7 7 8 5 6 5 4 6 6 5 6 6 7 7 8 7 6 7 6 6 6 7 8 9 9 9 9 10 10 9 nan
nan 7 5 5 5 5 6 3 9 9 1 0 13 15 7 6 7 7 5 7 7 6 8 6 6 4 4 6 8 7 7 7 8 8 6 6 6 7 7 7 7 7 8 7 8 7 6 7 nan
nan 6 6 5 6 10 9 7 9 6 4 4 13 15 6 4 6 8 7 7 8 8 7 5 4 6 6 6 7 7 7 7 8 7 7 6 7 7 6 6 7 7 8 8 7 7 7 8 nan
nan 7 7 9 8 8 9 6 3 7 10 8 12 13 6 8 6 7 9 7 8 9 9 7 5 6 6 4 5 6 7 7 7 6 8 7 7 7 6 7 7 7 8 7 8 7 7 8 nan
nan 8 13 10 9 7 7 6 8 -2 7 5 14 17 10 7 7 8 10 13 10 8 11 8 4 8 9 7 6 7 7 8 7 8 8 6 7 7 7 7 7 7 7 9 8 8 8 9 nan
nan 11 9 12 10 7 6 13 17 14 10 5 8 12 11 8 8 9 9 9 9 11 11 10 8 6 7 8 9 9 9 7 7 8 9 9 8 6 6 7 8 8 8 9 8 8 9 9 nan
nan 12 7 13 10 9 -1 9 11 11 7 9 8 14 12 8 8 10 8 8 8 7 6 8 10 9 8 8 9 8 7 7 9 8 7 8 9 7 7 7 8 8 8 8 9 9 9 7 nan
nan 6 10 13 9 7 3 -2 2 9 12 8 11 17 13 9 8 8 7 7 8 7 5 5 8 8 6 7 8 9 9 9 8 9 9 10 10 9 7 9 9 9 10 9 9 9 9 8 nan
nan 6 6 5 5 17 10 9 8 2 10 12 17 13 10 8 8 9 8 7 5 8 9 6 6 5 4 6 8 10 9 6 8 8 12 13 13 12 11 10 10 8 9 9 9 10 8 9 nan
nan 6 6 10 14 6 11 15 11 10 11 16 13 8 7 9 7 7 8 8 7 6 6 5 5 8 6 8 8 9 8 7 7 7 9 9 13 14 13 11 11 11 7 7 9 11 11 8 nan
nan 7 6 4 10 12 12 14 15 10 7 13 13 11 9 8 3 5 8 4 8 7 6 10 10 9 9 7 7 9 9 10 8 9 3 6 11 12 13 11 10 10 10 9 9 8 11 11 nan
nan 8 7 6 8 9 8 15 12 15 10 10 11 10 8 6 7 7 4 6 6 8 10 9 7 5 8 9 9 9 12 11 13 8 8 7 7 11 10 9 10 10 9 8 9 9 10 10 nan
nan 9 11 10 7 6 7 13 15 12 9 14 11 11 9 6 6 8 7 6 9 9 7 6 8 9 10 7 5 7 9 12 15 10 8 6 6 8 9 9 9 9 9 8 8 9 11 12 nan
nan 10 11 13 12 10 9 8 10 11 8 11 15 9 7 6 7 4 9 11 8 9 9 9 8 9 10 13 15 15 14 11 6 7 7 9 7 5 7 9 8 8 8 9 9 9 9 10 nan
nan 10 13 12 10 10 13 6 11 9 11 16 16 11 9 7 4 8 7 7 7 8 10 10 8 10 11 11 15 14 10 12 9 6 7 8 9 7 7 8 9 10 9 9 9 8 7 10 nan
nan 7 10 9 6 12 13 4 14 16 12 15 16 11 8 7 8 9 8 8 7 10 11 11 9 7 8 9 9 10 8 8 8 9 9 7 9 10 9 9 9 9 9 9 10 9 8 8 nan
nan 9 5 5 11 12 5 5 13 17 14 12 14 12 10 8 13 10 9 11 9 9 11 9 7 7 9 9 7 8 8 10 9 9 11 12 10 8 9 9 9 9 9 9 10 9 9 9 nan
nan 6 7 11 10 8 11 12 12 13 11 8 11 7 8 13 14 11 9 8 10 10 9 9 8 9 9 8 8 9 9 9 10 10 10 10 10 8 8 9 8 8 9 9 10 8 9 9 nan
nan 8 6 10 12 10 11 9 17 16 11 11 6 10 12 11 9 8 7 9 10 10 10 8 7 7 7 8 10 9 8 8 10 10 10 9 8 8 8 8 8 9 8 9 10 9 8 9 nan
nan nan nan nan nan nan nan nan nan nan nan nan nan nan nan nan nan nan nan nan nan nan nan nan nan nan nan nan nan nan nan nan nan nan nan nan nan nan nan nan nan nan nan nan nan nan nan nan nan
CAPE
0 0 0 0 0 0 0 0 0 3 37 0 0 69 24 58 463 202 331 886 1578 1627 1322 1523 1588 1298 1199 1205 1155 1050 1032 1153 1278 1336 1209 1114 1098 983 782 833 844 577 465 420 381 400 348 266 300
0 0 0 0 0 0 0 0 0 0 0 5 0 0 27 5 37 530 695 1257 1364 1259 1345 1409 1627 1329 1104 1110 1016 1001 1004 1047 1145 1232 1259 1182 1074 803 738 940 951 660 583 564 624 726 715 610 466
0 0 0 0 0 0 0 0 0 0 0 30 1 0 20 4 489 534 715 1305 1411 1331 1391 1329 1632 1370 1064 897 923 993 1019 944 1011 1127 1130 1029 997 867 882 1015 1046 704 695 844 907 915 735 430 346
0 0 0 0 0 0 0 0 0 6 16 22 1 82 8 146 626 793 1090 1417 1264 1366 1345 1662 1596 1407 1084 929 891 967 1031 1036 1024 932 871 820 656 773 972 968 1003 994 872 909 1059 982 443 400 311
0 0 0 0 0 0 0 0 0 0 4 32 133 120 29 938 1210 1153 1341 1164 1123 1082 1348 1490 1527 1462 1111 922 848 1064 1228 1310 1180 1029 815 702 707 720 810 820 743 734 679 709 913 852 462 302 345
0 0 0 0 0 0 0 0 0 0 0 5 6 37 0 1093 1251 1319 1228 1031 896 941 1244 1285 1357 1494 1217 1027 1073 1070 1208 1434 1414 1243 1081 844 707 722 689 749 692 635 593 591 616 535 447 393 377
0 0 0 0 0 0 0 0 0 0 0 0 0 0 191 1031 1140 1207 1030 919 927 940 1041 1166 946 1187 1359 1122 1005 1036 1119 1354 1409 1288 1128 906 699 700 677 753 762 753 767 687 612 569 423 340 323
0 0 0 0 0 0 0 0 0 0 0 0 0 0 50 620 1029 1075 1098 975 950 959 895 1041 948 850 949 954 1065 1023 1100 1252 1225 1112 974 705 644 589 537 373 471 492 519 503 544 581 575 444 336
0 0 0 0 0 0 0 0 0 0 0 43 3 469 519 937 1143 1197 1115 900 821 890 910 893 795 805 615 600 753 998 834 990 1043 912 865 445 126 245 272 202 221 429 426 493 504 513 468 453 454
0 0 0 0 0 0 0 0 0 0 0 1080 201 549 731 1167 1147 1023 881 799 780 748 846 800 630 555 438 700 600 494 448 559 422 407 445 115 75 83 180 277 456 448 595 666 607 558 581 486 61
0 0 0 0 0 0 0 0 0 0 0 810 482 673 914 1041 934 827 657 584 478 539 525 842 642 416 396 434 413 338 338 325 184 175 155 54 50 47 106 30 21 29 52 121 82 15 3 0 0
0 0 0 0 0 0 0 0 0 0 0 0 3 552 829 880 747 668 531 427 431 451 481 507 528 391 369 358 239 324 340 169 84 66 65 39 16 0 0 9 7 15 16 8 2 0 0 0 0
0 0 0 0 0 0 0 0 0 0 0 0 0 591 688 794 604 349 309 424 373 396 407 461 432 385 455 271 165 107 145 112 28 25 37 24 2 0 0 0 12 19 3 0 0 0 0 0 0
0 0 0 0 0 0 0 0 0 0 0 0 0 270 665 766 549 258 135 286 459 405 285 244 366 321 434 241 106 92 94 94 34 0 1 33 10 0 0 0 0 0 12 5 0 2 10 0 0
0 0 0 0 0 0 0 0 0 0 0 0 0 603 683 660 442 341 75 9 153 206 257 198 322 25 248 119 27 17 15 6 10 0 0 4 4 0 0 0 0 0 48 68 30 9 0 0 0
0 0 0 0 0 0 0 0 0 0 0 0 0 297 594 508 398 199 17 1 0 0 16 41 223 0 0 0 0 0 0 0 0 0 0 0 31 27 2 0 3 147 135 45 123 209 97 14 0
0 0 0 0 0 0 0 0 0 0 0 0 0 0 606 558 491 292 210 90 18 5 50 190 21 0 12 20 0 0 0 0 0 0 3 1 27 95 70 122 334 452 511 644 403 230 19 21 1
0 0 0 0 0 0 0 0 0 0 0 0 0 271 792 812 822 535 307 158 123 130 71 146 109 3 36 137 264 59 47 115 186 73 84 105 138 219 288 420 664 753 663 511 283 178 61 0 0
0 0 0 0 0 0 0 0 0 0 0 0 500 680 866 969 716 427 230 151 171 96 69 67 1 0 1 21 162 475 449 416 591 413 515 603 686 504 463 696 713 420 225 208 197 149 81 14 0
0 0 0 0 0 0 0 0 0 0 0 172 632 822 461 565 576 307 299 274 247 213 165 21 2 0 0 18 52 373 476 497 527 336 327 404 392 234 342 276 69 31 56 137 89 90 97 22 0
0 0 0 0 0 0 0 0 0 0 0 0 684 740 544 801 641 422 353 382 385 317 170 0 0 15 18 0 0 24 206 254 296 259 113 4 25 33 19 32 42 14 9 3 2 1 17 90 23
0 0 0 0 0 0 0 0 0 0 0 0 207 230 532 738 788 644 533 362 303 163 0 0 0 0 0 0 0 10 80 1 233 21 82 5 6 3 0 0 0 0 0 0 0 0 0 1 0
0 0 0 0 6 3 0 0 0 0 0 0 107 200 457 483 246 529 647 566 23 0 0 0 0 0 0 0 24 268 215 98 12 5 3 0 0 0 0 0 0 0 0 0 0 0 0 0 0
0 0 0 0 36 33 0 0 0 0 0 0 38 148 275 357 237 263 18 16 0 0 0 0 0 44 91 78 103 229 109 0 1 2 1 0 0 0 0 0 0 0 0 0 0 0 0 0 0
0 2 2 32 53 3 0 0 0 0 0 0 0 271 147 274 241 31 0 37 0 0 0 0 30 1 1 0 0 0 0 0 0 0 0 0 0 0 0 0 0 0 0 0 0 0 0 0 0
0 0 0 12 7 0 0 0 0 0 0 0 0 715 486 381 27 11 0 35 0 424 485 6 1 0 0 0 0 0 0 0 0 0 0 0 0 0 0 0 0 0 0 0 0 0 0 0 0
5 0 0 3 0 0 0 0 0 0 0 0 0 950 1171 1040 377 237 429 498 600 621 61 0 0 0 0 0 0 0 0 0 0 0 0 0 0 0 0 0 0 0 0 0 0 0 0 0 0
2 0 0 24 0 0 0 0 0 0 0 0 0 766 358 148 518 869 992 688 68 1 0 0 0 0 0 0 0 0 0 0 0 0 0 0 0 0 0 0 0 0 0 0 0 0 0 0 0
23 7 1 2 0 0 0 0 0 0 0 0 0 1 54 670 1129 950 404 1 0 0 0 0 0 0 0 0 0 0 0 0 0 0 0 0 0 0 0 0 0 0 0 0 0 0 0 0 0
2 0 1 3 0 0 0 0 0 0 0 0 0 215 598 918 514 16 0 0 0 0 0 0 0 0 0 0 0 0 0 0 0 0 0 0 0 0 0 0 0 0 0 0 0 0 0 0 0